Location: Conjunto Santa Maria
(19.9513°S, 43.9599°W)
Time: 17:52:24
(UTC+00:00)

Aurora 2 Rocket - Pass Details

Date: 21 January 2021
Orbit: 390 x 1740 km, 25.0° (Epoch: 01 March)

Event Time Altitude Azimuth Distance (km) Brightness Sun altitude
Rises 21:49:55 0° 262° (W) 4,467 8.9 -2.8°
Reaches altitude 10° 21:53:28 10° 258° (WSW) 3,279 8.1 -3.6°
Maximum altitude 22:01:20 56° 181° (S) 1,151 4.1 -5.3°
Drops below altitude 10° 22:06:46 10° 103° (ESE) 2,293 5.0 -6.4°
Enters shadow 22:08:11 - 99° (E) 2,795 5.4 -6.7°
